Regional Weather Roundup
Issued by NWS Boston, MA

Home | Current Version | Previous Version | Text Only | Print | Product List | Glossary On
Versions: 1 2 3 4 5 6 7 8 9 10 11 12 13 14 15 16 17 18 19 20 21 22 23 24 25 26 27 28 29 30 31 32 33 34 35 36 37 38 39 40 41 42 43 44 45 46 47 48 49 50
000
ASUS41 KBOX 231010
RWRBOX

REGIONAL WEATHER ROUNDUP
NATIONAL WEATHER SERVICE TAUNTON MA
600 AM EDT WED JUL 23 2014

NOTE:  "FAIR" INDICATES FEW OR NO CLOUDS BELOW 12,000 FEET WITH NO
SIGNIFICANT WEATHER AND/OR OBSTRUCTIONS TO VISIBILITY.  THE FOLLOWING
OBSERVATION LOCATIONS DO NOT REPORT PRESENT WEATHER...PROVINCETOWN...
SMITHFIELD...BLOCK ISLAND...KEENE...AND OXFORD.

MAZALL-231100-
EASTERN MASSACHUSETTS

CITY           SKY/WX    TMP DP  RH WIND       PRES   REMARKS
BOSTON         PTCLDY    71  64  78 SW14      29.92F
BEVERLY        CLEAR     71  65  81 SW8       29.91F
LAWRENCE       CLEAR     70  66  87 S7        29.93F
BEDFORD        CLEAR     69  66  90 SW6       29.91F
BLUE HILL        N/A     68  64  87 SW13      29.95F
NORWOOD        CLEAR     70  64  81 S6        29.94F
MARSHFIELD     CLEAR     72  64  78 SW7       29.96F
PLYMOUTH       CLEAR     68  61  78 S5        29.97F
TAUNTON        CLEAR     70  64  81 SW5       29.95F
NEW BEDFORD    CLEAR     69  65  86 SW9       29.96F
$$

MAZALL-231100-
CAPE COD AND THE ISLANDS

CITY           SKY/WX    TMP DP  RH WIND       PRES   REMARKS
FALMOUTH       CLEAR     70  66  88 SW13G20   29.98F
HYANNIS        CLEAR     71  67  87 SW12      29.96F
CHATHAM        CLEAR     70  67  90 SW9G16    29.99S
PROVINCETOWN   CLEAR     68  64  88 S12       29.96S
NANTUCKET      CLEAR     66  65  96 SW8       30.00F
MARTHAS VNYRD  PTCLDY    68  67  96 SW8       29.99F
$$

MAZALL-231100-
CENTRAL AND WESTERN MASSACHUSETTS

CITY           SKY/WX    TMP DP  RH WIND       PRES   REMARKS
WORCESTER      CLEAR     67  65  93 SW12      29.98S
FITCHBURG      CLEAR     70  66  87 CALM      29.95S
ORANGE           N/A    N/A N/A N/A MISG      29.95S
SPRINGFIELD    CLEAR     69  65  88 S3        29.94F
WESTFIELD      CLEAR     68  65  90 S5        29.94F
NORTH ADAMS    CLEAR     69  67  93 CALM      29.94S
PITTSFIELD     CLEAR     68  66  93 NE3       29.96S FOG
$$

RIZALL-231100-
RHODE ISLAND

CITY           SKY/WX    TMP DP  RH WIND       PRES   REMARKS
PROVIDENCE     PTCLDY    70  63  78 SW6       29.97F
NEWPORT        CLEAR     69  66  90 S7        29.98F
BLOCK ISLAND   CLOUDY    70  66  88 SW15      30.00S
SMITHFIELD     CLEAR     68  61  77 SW3       29.98F
WESTERLY       CLEAR     70  65  84 SW5       29.99F
$$

CTZALL-231100-
CONNECTICUT

CITY           SKY/WX    TMP DP  RH WIND       PRES   REMARKS
BRADLEY INTL   PTCLDY    70  64  81 SE6       29.94F
HARTFORD       PTCLDY    70  64  81 S9        29.95F
BRIDGEPORT     PTCLDY    73  65  75 SW9       29.97F
DANBURY        CLEAR     70  63  78 W3        29.99F
GROTON         CLEAR     68  66  93 CALM      29.97F
NEW HAVEN      PTCLDY    74  65  73 SW6       29.97F
CHESTER        FAIR      68  64  88 S5        29.99F
MERIDEN        CLEAR     69  64  84 S3        29.97S
WILLIMANTIC    CLOUDY    68  63  84 CALM      29.97F
OXFORD         CLEAR     66  63  88 SW6       30.00F
$$

MEZ002-015-021-024-NHZ003-005-008-011-012-014-VTZ005-008-231100-
NORTHERN NEW ENGLAND

CITY           SKY/WX    TMP DP  RH WIND       PRES   REMARKS
PORTLAND ME    CLEAR     71  67  87 SW5       29.87F
BANGOR ME      PTCLDY    66  64  93 S6        29.86S FOG
CONCORD NH     CLEAR     68  67  96 E3        29.91S FOG
MANCHESTER NH  CLEAR     71  66  84 S5        29.90S
NASHUA NH      CLEAR     71  67  87 CALM      29.93S
PORTSMOUTH NH  CLEAR     71  67  87 SW7       29.90S
JAFFREY NH     MOCLDY    67  65  93 S8        29.97F
KEENE NH       CLEAR     66  57  72 CALM      29.94S
BURLINGTON VT  PTCLDY    76  68  76 S14       29.82F
MT. WASHINGTON FOG       55  55 100 W44G51      N/A  VSB 0
$$

NYZ052-076-231100-
EASTERN NEW YORK

CITY           SKY/WX    TMP DP  RH WIND       PRES   REMARKS
ALBANY         PTCLDY    73  69  87 SE6       29.91S
NEW YORK CITY  PTCLDY    74  62  66 SW12      29.97F
$$

ANZALL-231100-
MARINE OBSERVATIONS

STATION/POSITION TIME  TEMP    WIND        PRES    VSBY  WAVE
                       AIR SEA DIR/SP/G                  HT/PER
                 (UTC) (F)     (DEG/KT/KT) (MB)    (MI)  (FT/S)
BOSTON BUOY      NOT AVBL
BUZZARDS BAY     NOT AVBL
NANTUCKET SOUND  NOT AVBL
MASS BAY-STELLWA NOT AVBL
ISLE OF SHOALS   NOT AVBL
S OF BLOCK IS    NOT AVBL
$$

......................KEY.........................
  SKY/WX - SKY CONDITION/PRESENT WEATHER
  TMP    - TEMPERATURE IN FAHRENHEIT
  DWPT   - DEWPOINT IN FAHRENHEIT
  RH     - RELATIVE HUMIDITY IN PERCENT
  WIND   - DIRECTION AND SPEED IN MPH
  PRES   - MEAN SEA LEVEL PRESSURE IN INCHES OF HG
  WCI    - WIND CHILL INDEX
  VSB    - VISIBILITY IN MILES
  HX     - HEAT INDEX
  TC     - TEMPERATURE IN CELSIUS
  VRB    - VARIABLE WIND DIRECTION
  N/A    - NOT AVAILABLE



USA.gov is the U.S. government's official web portal to all federal, state and local government web resources and services.